Location: A�t Bou Chrif
(32.7193°N, 5.2385°W)
Time: 00:40:41
(UTC+00:00)

Cosmos 1833 Rocket - Pass Details

Date: 08 August 2020
Orbit: 831 x 841 km, 71.0° (Epoch: 18 September)

Event Time Altitude Azimuth Distance (km) Brightness Sun altitude
Rises 20:47:12 0° 204° (SSW) 3,358 5.7 -18.6°
Reaches altitude 10° 20:49:38 10° 206° (SSW) 2,429 5.0 -19.0°
Maximum altitude 20:55:11 72° 291° (WNW) 872 2.9 -20.0°
Drops below altitude 10° 21:00:47 10° 16° (NNE) 2,447 5.3 -20.9°
Sets 21:03:15 0° 18° (NNE) 3,386 6.1 -21.4°
